Year,Month,Day,Hour,Minute,Value (Times are PST for temperature in C)
2017,06,21,00,00,15.50
2017,06,21,00,01,15.50
2017,06,21,00,02,15.40
2017,06,21,00,03,15.40
2017,06,21,00,04,15.40
2017,06,21,00,05,15.40
2017,06,21,00,06,15.40
2017,06,21,00,07,15.40
2017,06,21,00,08,15.30
2017,06,21,00,09,15.30
2017,06,21,00,10,15.30
2017,06,21,00,11,15.30
2017,06,21,00,12,15.30
2017,06,21,00,13,15.30
2017,06,21,00,14,15.30
2017,06,21,00,15,15.20
2017,06,21,00,16,15.20
2017,06,21,00,17,15.20
2017,06,21,00,18,15.20
2017,06,21,00,19,15.20
2017,06,21,00,20,15.20
2017,06,21,00,21,15.10
2017,06,21,00,22,15.10
2017,06,21,00,23,15.10
2017,06,21,00,24,15.10
2017,06,21,00,25,15.00
2017,06,21,00,26,15.00
2017,06,21,00,27,15.00
2017,06,21,00,28,15.00
2017,06,21,00,29,15.00
2017,06,21,00,30,15.00
2017,06,21,00,31,14.90
2017,06,21,00,32,14.90
2017,06,21,00,33,14.90
2017,06,21,00,34,14.90
2017,06,21,00,35,14.80
2017,06,21,00,36,14.80
2017,06,21,00,37,14.80
2017,06,21,00,38,14.80
2017,06,21,00,39,14.70
2017,06,21,00,40,14.70
2017,06,21,00,41,14.70
2017,06,21,00,42,14.70
2017,06,21,00,43,14.60
2017,06,21,00,44,14.60
2017,06,21,00,45,14.60
2017,06,21,00,46,14.60
2017,06,21,00,47,14.50
2017,06,21,00,48,14.50
2017,06,21,00,49,14.50
2017,06,21,00,50,14.40
2017,06,21,00,51,14.40
2017,06,21,00,52,14.40
2017,06,21,00,53,14.30
2017,06,21,00,54,14.30
2017,06,21,00,55,14.30
2017,06,21,00,56,14.20
2017,06,21,00,57,14.20
2017,06,21,00,58,14.20
2017,06,21,00,59,14.20
2017,06,21,01,00,14.10
2017,06,21,01,01,14.10
2017,06,21,01,02,14.10
2017,06,21,01,03,14.10
2017,06,21,01,04,14.00
2017,06,21,01,05,14.00
2017,06,21,01,06,13.90
2017,06,21,01,07,13.90
2017,06,21,01,08,13.90
2017,06,21,01,09,13.80
2017,06,21,01,10,13.80
2017,06,21,01,11,13.80
2017,06,21,01,12,13.80
2017,06,21,01,13,13.80
2017,06,21,01,14,13.70
2017,06,21,01,15,13.70
2017,06,21,01,16,13.70
2017,06,21,01,17,13.70
2017,06,21,01,18,13.70
2017,06,21,01,19,13.60
2017,06,21,01,20,13.60
2017,06,21,01,21,13.60
2017,06,21,01,22,13.50
2017,06,21,01,23,13.50
2017,06,21,01,24,13.40
2017,06,21,01,25,13.40
2017,06,21,01,26,13.40
2017,06,21,01,27,13.30
2017,06,21,01,28,13.30
2017,06,21,01,29,13.30
2017,06,21,01,30,13.20
2017,06,21,01,31,13.20
2017,06,21,01,32,13.20
2017,06,21,01,33,13.10
2017,06,21,01,34,13.10
2017,06,21,01,35,13.10
2017,06,21,01,36,13.10
2017,06,21,01,37,13.00
2017,06,21,01,38,13.00
2017,06,21,01,39,13.00
2017,06,21,01,40,12.90
2017,06,21,01,41,12.90
2017,06,21,01,42,12.90
2017,06,21,01,43,12.80
2017,06,21,01,44,12.80
2017,06,21,01,45,12.80
2017,06,21,01,46,12.80
2017,06,21,01,47,12.70
2017,06,21,01,48,12.70
2017,06,21,01,49,12.70
2017,06,21,01,50,12.60
2017,06,21,01,51,12.60
2017,06,21,01,52,12.60
2017,06,21,01,53,12.60
2017,06,21,01,54,12.70
2017,06,21,01,55,12.70
2017,06,21,01,56,12.70
2017,06,21,01,57,12.70
2017,06,21,01,58,12.70
2017,06,21,01,59,12.80
2017,06,21,02,00,12.80
2017,06,21,02,01,12.80
2017,06,21,02,02,12.80
2017,06,21,02,03,12.80
2017,06,21,02,04,12.80
2017,06,21,02,05,12.80
2017,06,21,02,06,12.80
2017,06,21,02,07,12.80
2017,06,21,02,08,12.80
2017,06,21,02,09,12.80
2017,06,21,02,10,12.80
2017,06,21,02,11,12.80
2017,06,21,02,12,12.80
2017,06,21,02,13,12.80
2017,06,21,02,14,12.80
2017,06,21,02,15,12.80
2017,06,21,02,16,12.80
2017,06,21,02,17,12.90
2017,06,21,02,18,12.90
2017,06,21,02,19,12.90
2017,06,21,02,20,12.90
2017,06,21,02,21,12.80
2017,06,21,02,22,12.80
2017,06,21,02,23,12.80
2017,06,21,02,24,12.80
2017,06,21,02,25,12.80
2017,06,21,02,26,12.80
2017,06,21,02,27,12.80
2017,06,21,02,28,12.80
2017,06,21,02,29,12.80
2017,06,21,02,30,12.80
2017,06,21,02,31,12.70
2017,06,21,02,32,12.70
2017,06,21,02,33,12.70
2017,06,21,02,34,12.60
2017,06,21,02,35,12.60
2017,06,21,02,36,12.60
2017,06,21,02,37,12.60
2017,06,21,02,38,12.50
2017,06,21,02,39,12.40
2017,06,21,02,40,12.40
2017,06,21,02,41,12.40
2017,06,21,02,42,12.30
2017,06,21,02,43,12.30
2017,06,21,02,44,12.20
2017,06,21,02,45,12.20
2017,06,21,02,46,12.20
2017,06,21,02,47,12.10
2017,06,21,02,48,12.10
2017,06,21,02,49,12.00
2017,06,21,02,50,12.00
2017,06,21,02,51,11.90
2017,06,21,02,52,11.90
2017,06,21,02,53,11.80
2017,06,21,02,54,11.80
2017,06,21,02,55,11.70
2017,06,21,02,56,11.70
2017,06,21,02,57,11.60
2017,06,21,02,58,11.60
2017,06,21,02,59,11.50
2017,06,21,03,00,11.50
2017,06,21,03,01,11.50
2017,06,21,03,02,11.40
2017,06,21,03,03,11.40
2017,06,21,03,04,11.30
2017,06,21,03,05,11.30
2017,06,21,03,06,11.30
2017,06,21,03,07,11.30
2017,06,21,03,08,11.20
2017,06,21,03,09,11.20
2017,06,21,03,10,11.10
2017,06,21,03,11,11.10
2017,06,21,03,12,11.10
2017,06,21,03,13,11.00
2017,06,21,03,14,11.00
2017,06,21,03,15,10.90
2017,06,21,03,16,10.90
2017,06,21,03,17,10.80
2017,06,21,03,18,10.80
2017,06,21,03,19,10.80
2017,06,21,03,20,10.70
2017,06,21,03,21,10.70
2017,06,21,03,22,10.70
2017,06,21,03,23,10.60
2017,06,21,03,24,10.60
2017,06,21,03,25,10.60
2017,06,21,03,26,10.60
2017,06,21,03,27,10.50
2017,06,21,03,28,10.50
2017,06,21,03,29,10.40
2017,06,21,03,30,10.40
2017,06,21,03,31,10.40
2017,06,21,03,32,10.40
2017,06,21,03,33,10.40
2017,06,21,03,34,10.30
2017,06,21,03,35,10.30
2017,06,21,03,36,10.30
2017,06,21,03,37,10.30
2017,06,21,03,38,10.30
2017,06,21,03,39,10.30
2017,06,21,03,40,10.30
2017,06,21,03,41,10.30
2017,06,21,03,42,10.20
2017,06,21,03,43,10.20
2017,06,21,03,44,10.20
2017,06,21,03,45,10.20
2017,06,21,03,46,10.20
2017,06,21,03,47,10.20
2017,06,21,03,48,10.10
2017,06,21,03,49,10.10
2017,06,21,03,50,10.10
2017,06,21,03,51,10.10
2017,06,21,03,52,10.10
2017,06,21,03,53,10.10
2017,06,21,03,54,10.00
2017,06,21,03,55,10.00
2017,06,21,03,56,9.90
2017,06,21,03,57,9.90
2017,06,21,03,58,9.90
2017,06,21,03,59,9.90
2017,06,21,04,00,9.90
2017,06,21,04,01,9.90
2017,06,21,04,02,9.80
2017,06,21,04,03,9.80
2017,06,21,04,04,9.80
2017,06,21,04,05,9.80
2017,06,21,04,06,9.80
2017,06,21,04,07,9.80
2017,06,21,04,08,9.80
2017,06,21,04,09,9.80
2017,06,21,04,10,9.80
2017,06,21,04,11,9.80
2017,06,21,04,12,9.70
2017,06,21,04,13,9.80
2017,06,21,04,14,9.70
2017,06,21,04,15,9.70
2017,06,21,04,16,9.70
2017,06,21,04,17,9.70
2017,06,21,04,18,9.70
2017,06,21,04,19,9.70
2017,06,21,04,20,9.80
2017,06,21,04,21,9.80
2017,06,21,04,22,9.80
2017,06,21,04,23,9.80
2017,06,21,04,24,9.80
2017,06,21,04,25,9.80
2017,06,21,04,26,9.80
2017,06,21,04,27,9.80
2017,06,21,04,28,9.80
2017,06,21,04,29,9.80
2017,06,21,04,30,9.80
2017,06,21,04,31,9.80
2017,06,21,04,32,9.80
2017,06,21,04,33,9.80
2017,06,21,04,34,9.80
2017,06,21,04,35,9.80
2017,06,21,04,36,9.80
2017,06,21,04,37,9.80
2017,06,21,04,38,9.80
2017,06,21,04,39,9.80
2017,06,21,04,40,9.80
2017,06,21,04,41,9.80
2017,06,21,04,42,9.80
2017,06,21,04,43,9.80
2017,06,21,04,44,9.80
2017,06,21,04,45,9.80
2017,06,21,04,46,9.80
2017,06,21,04,47,9.80
2017,06,21,04,48,9.80
2017,06,21,04,49,9.80
2017,06,21,04,50,9.80
2017,06,21,04,51,9.80
2017,06,21,04,52,9.80
2017,06,21,04,53,9.80
2017,06,21,04,54,9.70
2017,06,21,04,55,9.70
2017,06,21,04,56,9.70
2017,06,21,04,57,9.70
2017,06,21,04,58,9.70
2017,06,21,04,59,9.70
2017,06,21,05,00,9.70
2017,06,21,05,01,9.60
2017,06,21,05,02,9.60
2017,06,21,05,03,9.60
2017,06,21,05,04,9.60
2017,06,21,05,05,9.60
2017,06,21,05,06,9.60
2017,06,21,05,07,9.60
2017,06,21,05,08,9.60
2017,06,21,05,09,9.60
2017,06,21,05,10,9.60
2017,06,21,05,11,9.60
2017,06,21,05,12,9.60
2017,06,21,05,13,9.60
2017,06,21,05,14,9.60
2017,06,21,05,15,9.60
2017,06,21,05,16,9.60
2017,06,21,05,17,9.60
2017,06,21,05,18,9.50
2017,06,21,05,19,9.50
2017,06,21,05,20,9.50
2017,06,21,05,21,9.50
2017,06,21,05,22,9.50
2017,06,21,05,23,9.50
2017,06,21,05,24,9.40
2017,06,21,05,25,9.40
2017,06,21,05,26,9.40
2017,06,21,05,27,9.40
2017,06,21,05,28,9.40
2017,06,21,05,29,9.40
2017,06,21,05,30,9.30
2017,06,21,05,31,9.30
2017,06,21,05,32,9.30
2017,06,21,05,33,9.30
2017,06,21,05,34,9.30
2017,06,21,05,35,9.30
2017,06,21,05,36,9.30
2017,06,21,05,37,9.30
2017,06,21,05,38,9.30
2017,06,21,05,39,9.30
2017,06,21,05,40,9.30
2017,06,21,05,41,9.30
2017,06,21,05,42,9.20
2017,06,21,05,43,9.20
2017,06,21,05,44,9.20
2017,06,21,05,45,9.20
2017,06,21,05,46,9.20
2017,06,21,05,47,9.20
2017,06,21,05,48,9.20
2017,06,21,05,49,9.20
2017,06,21,05,50,9.20
2017,06,21,05,51,9.20
2017,06,21,05,52,9.20
2017,06,21,05,53,9.20
2017,06,21,05,54,9.20
2017,06,21,05,55,9.20
2017,06,21,05,56,9.20
2017,06,21,05,57,9.20
2017,06,21,05,58,9.20
2017,06,21,05,59,9.20
2017,06,21,06,00,9.20
2017,06,21,06,01,9.20
2017,06,21,06,02,9.20
2017,06,21,06,03,9.20
2017,06,21,06,04,9.20
2017,06,21,06,05,9.20
2017,06,21,06,06,9.20
2017,06,21,06,07,9.20
2017,06,21,06,08,9.20
2017,06,21,06,09,9.20
2017,06,21,06,10,9.20
2017,06,21,06,11,9.20
2017,06,21,06,12,9.20
2017,06,21,06,13,9.20
2017,06,21,06,14,9.20
2017,06,21,06,15,9.20
2017,06,21,06,16,9.20
2017,06,21,06,17,9.20
2017,06,21,06,18,9.20
2017,06,21,06,19,9.20
2017,06,21,06,20,9.20
2017,06,21,06,21,9.30
2017,06,21,06,22,9.30
2017,06,21,06,23,9.30
2017,06,21,06,24,9.40
2017,06,21,06,25,9.40
2017,06,21,06,26,9.50
2017,06,21,06,27,9.50
2017,06,21,06,28,9.60
2017,06,21,06,29,9.60
2017,06,21,06,30,9.70
2017,06,21,06,31,9.70
2017,06,21,06,32,9.80
2017,06,21,06,33,9.80
2017,06,21,06,34,9.80
2017,06,21,06,35,9.90
2017,06,21,06,36,10.00
2017,06,21,06,37,10.00
2017,06,21,06,38,10.10
2017,06,21,06,39,10.10
2017,06,21,06,40,10.20
2017,06,21,06,41,10.20
2017,06,21,06,42,10.30
2017,06,21,06,43,10.40
2017,06,21,06,44,10.50
2017,06,21,06,45,10.60
2017,06,21,06,46,10.60
2017,06,21,06,47,10.70
2017,06,21,06,48,10.80
2017,06,21,06,49,10.80
2017,06,21,06,50,10.90
2017,06,21,06,51,11.00
2017,06,21,06,52,11.00
2017,06,21,06,53,11.00
2017,06,21,06,54,11.10
2017,06,21,06,55,11.10
2017,06,21,06,56,11.20
2017,06,21,06,57,11.20
2017,06,21,06,58,11.30
2017,06,21,06,59,11.40
2017,06,21,07,00,11.50
2017,06,21,07,01,11.60
2017,06,21,07,02,11.70
2017,06,21,07,03,11.80
2017,06,21,07,04,11.90
2017,06,21,07,05,12.00
2017,06,21,07,06,12.00
2017,06,21,07,07,12.10
2017,06,21,07,08,12.20
2017,06,21,07,09,12.30
2017,06,21,07,10,12.30
2017,06,21,07,11,12.40
2017,06,21,07,12,12.50
2017,06,21,07,13,12.50
2017,06,21,07,14,12.60
2017,06,21,07,15,12.60
2017,06,21,07,16,12.60
2017,06,21,07,17,12.60
2017,06,21,07,18,12.70
2017,06,21,07,19,12.70
2017,06,21,07,20,12.70
2017,06,21,07,21,12.80
2017,06,21,07,22,12.80
2017,06,21,07,23,12.80
2017,06,21,07,24,12.90
2017,06,21,07,25,12.90
2017,06,21,07,26,12.90
2017,06,21,07,27,12.90
2017,06,21,07,28,13.00
2017,06,21,07,29,13.00
2017,06,21,07,30,13.10
2017,06,21,07,31,13.10
2017,06,21,07,32,13.10
2017,06,21,07,33,13.20
2017,06,21,07,34,13.20
2017,06,21,07,35,13.20
2017,06,21,07,36,13.20
2017,06,21,07,37,13.30
2017,06,21,07,38,13.30
2017,06,21,07,39,13.30
2017,06,21,07,40,13.30
2017,06,21,07,41,13.40
2017,06,21,07,42,13.40
2017,06,21,07,43,13.40
2017,06,21,07,44,13.50
2017,06,21,07,45,13.50
2017,06,21,07,46,13.60
2017,06,21,07,47,13.60
2017,06,21,07,48,13.60
2017,06,21,07,49,13.60
2017,06,21,07,50,13.60
2017,06,21,07,51,13.60
2017,06,21,07,52,13.60
2017,06,21,07,53,13.60
2017,06,21,07,54,13.60
2017,06,21,07,55,13.60
2017,06,21,07,56,13.60
2017,06,21,07,57,13.70
2017,06,21,07,58,13.70
2017,06,21,07,59,13.70
2017,06,21,08,00,13.60
2017,06,21,08,01,13.60
2017,06,21,08,02,13.60
2017,06,21,08,03,13.60
2017,06,21,08,04,13.60
2017,06,21,08,05,13.60
2017,06,21,08,06,13.60
2017,06,21,08,07,13.70
2017,06,21,08,08,13.70
2017,06,21,08,09,13.70
2017,06,21,08,10,13.70
2017,06,21,08,11,13.70
2017,06,21,08,12,13.70
2017,06,21,08,13,13.80
2017,06,21,08,14,13.80
2017,06,21,08,15,13.80
2017,06,21,08,16,13.80
2017,06,21,08,17,13.80
2017,06,21,08,18,13.80
2017,06,21,08,19,13.80
2017,06,21,08,20,13.80
2017,06,21,08,21,13.80
2017,06,21,08,22,13.80
2017,06,21,08,23,13.80
2017,06,21,08,24,13.80
2017,06,21,08,25,13.80
2017,06,21,08,26,13.80
2017,06,21,08,27,13.80
2017,06,21,08,28,13.80
2017,06,21,08,29,13.90
2017,06,21,08,30,13.90
2017,06,21,08,31,13.90
2017,06,21,08,32,13.90
2017,06,21,08,33,13.90
2017,06,21,08,34,14.00
2017,06,21,08,35,14.00
2017,06,21,08,36,14.00
2017,06,21,08,37,14.10
2017,06,21,08,38,14.10
2017,06,21,08,39,14.10
2017,06,21,08,40,14.10
2017,06,21,08,41,14.20
2017,06,21,08,42,14.20
2017,06,21,08,43,14.20
2017,06,21,08,44,14.30
2017,06,21,08,45,14.30
2017,06,21,08,46,14.30
2017,06,21,08,47,14.40
2017,06,21,08,48,14.40
2017,06,21,08,49,14.40
2017,06,21,08,50,14.40
2017,06,21,08,51,14.40
2017,06,21,08,52,14.30
2017,06,21,08,53,14.40
2017,06,21,08,54,14.40
2017,06,21,08,55,14.40
2017,06,21,08,56,14.50
2017,06,21,08,57,14.50
2017,06,21,08,58,14.50
2017,06,21,08,59,14.50
2017,06,21,09,00,14.50
2017,06,21,09,01,14.60
2017,06,21,09,02,14.60
2017,06,21,09,03,14.60
2017,06,21,09,04,14.70
2017,06,21,09,05,14.70
2017,06,21,09,06,14.70
2017,06,21,09,07,14.70
2017,06,21,09,08,14.70
2017,06,21,09,09,14.70
2017,06,21,09,10,14.80
2017,06,21,09,11,14.80
2017,06,21,09,12,14.80
2017,06,21,09,13,14.80
2017,06,21,09,14,14.80
2017,06,21,09,15,14.80
2017,06,21,09,16,14.90
2017,06,21,09,17,14.90
2017,06,21,09,18,15.00
2017,06,21,09,19,15.10
2017,06,21,09,20,15.10
2017,06,21,09,21,15.20
2017,06,21,09,22,15.30
2017,06,21,09,23,15.30
2017,06,21,09,24,15.40
2017,06,21,09,25,15.40
2017,06,21,09,26,15.40
2017,06,21,09,27,15.40
2017,06,21,09,28,15.30
2017,06,21,09,29,15.30
2017,06,21,09,30,15.30
2017,06,21,09,31,15.30
2017,06,21,09,32,15.30
2017,06,21,09,33,15.30
2017,06,21,09,34,15.30
2017,06,21,09,35,15.20
2017,06,21,09,36,15.10
2017,06,21,09,37,15.00
2017,06,21,09,38,15.00
2017,06,21,09,39,15.00
2017,06,21,09,40,15.00
2017,06,21,09,41,15.10
2017,06,21,09,42,15.10
2017,06,21,09,43,15.10
2017,06,21,09,44,15.20
2017,06,21,09,45,15.20
2017,06,21,09,46,15.30
2017,06,21,09,47,15.30
2017,06,21,09,48,15.40
2017,06,21,09,49,15.40
2017,06,21,09,50,15.50
2017,06,21,09,51,15.40
2017,06,21,09,52,15.40
2017,06,21,09,53,15.30
2017,06,21,09,54,15.20
2017,06,21,09,55,15.20
2017,06,21,09,56,15.20
2017,06,21,09,57,15.20
2017,06,21,09,58,15.20
2017,06,21,09,59,15.20
2017,06,21,10,00,15.20
2017,06,21,10,01,15.30
2017,06,21,10,02,15.30
2017,06,21,10,03,15.30
2017,06,21,10,04,15.30
2017,06,21,10,05,15.30
2017,06,21,10,06,15.40
2017,06,21,10,07,15.30
2017,06,21,10,08,15.30
2017,06,21,10,09,15.30
2017,06,21,10,10,15.30
2017,06,21,10,11,15.40
2017,06,21,10,12,15.40
2017,06,21,10,13,15.40
2017,06,21,10,14,15.40
2017,06,21,10,15,15.40
2017,06,21,10,16,15.40
2017,06,21,10,17,15.40
2017,06,21,10,18,15.50
2017,06,21,10,19,15.50
2017,06,21,10,20,15.60
2017,06,21,10,21,15.60
2017,06,21,10,22,15.60
2017,06,21,10,23,15.70
2017,06,21,10,24,15.70
2017,06,21,10,25,15.80
2017,06,21,10,26,15.80
2017,06,21,10,27,15.80
2017,06,21,10,28,15.80
2017,06,21,10,29,15.80
2017,06,21,10,30,15.70
2017,06,21,10,31,15.60
2017,06,21,10,32,15.60
2017,06,21,10,33,15.50
2017,06,21,10,34,15.50
2017,06,21,10,35,15.50
2017,06,21,10,36,15.60
2017,06,21,10,37,15.60
2017,06,21,10,38,15.60
2017,06,21,10,39,15.60
2017,06,21,10,40,15.50
2017,06,21,10,41,15.50
2017,06,21,10,42,15.50
2017,06,21,10,43,15.60
2017,06,21,10,44,15.60
2017,06,21,10,45,15.70
2017,06,21,10,46,15.70
2017,06,21,10,47,15.80
2017,06,21,10,48,15.90
2017,06,21,10,49,15.90
2017,06,21,10,50,15.90
2017,06,21,10,51,15.90
2017,06,21,10,52,15.90
2017,06,21,10,53,15.90
2017,06,21,10,54,15.90
2017,06,21,10,55,15.90
2017,06,21,10,56,15.90
2017,06,21,10,57,15.90
2017,06,21,10,58,15.90
2017,06,21,10,59,15.90
2017,06,21,11,00,15.90
2017,06,21,11,01,15.90
2017,06,21,11,02,15.80
2017,06,21,11,03,15.80
2017,06,21,11,04,15.80
2017,06,21,11,05,15.80
2017,06,21,11,06,15.80
2017,06,21,11,07,15.80
2017,06,21,11,08,15.80
2017,06,21,11,09,15.80
2017,06,21,11,10,15.80
2017,06,21,11,11,15.80
2017,06,21,11,12,15.90
2017,06,21,11,13,15.90
2017,06,21,11,14,15.90
2017,06,21,11,15,16.00
2017,06,21,11,16,16.00
2017,06,21,11,17,16.00
2017,06,21,11,18,16.10
2017,06,21,11,19,16.00
2017,06,21,11,20,15.90
2017,06,21,11,21,15.90
2017,06,21,11,22,15.90
2017,06,21,11,23,15.80
2017,06,21,11,24,15.80
2017,06,21,11,25,15.80
2017,06,21,11,26,15.80
2017,06,21,11,27,15.80
2017,06,21,11,28,15.80
2017,06,21,11,29,15.90
2017,06,21,11,30,15.90
2017,06,21,11,31,15.90
2017,06,21,11,32,16.00
2017,06,21,11,33,16.00
2017,06,21,11,34,16.10
2017,06,21,11,35,16.10
2017,06,21,11,36,16.10
2017,06,21,11,37,16.10
2017,06,21,11,38,16.10
2017,06,21,11,39,16.10
2017,06,21,11,40,16.10
2017,06,21,11,41,16.20
2017,06,21,11,42,16.20
2017,06,21,11,43,16.20
2017,06,21,11,44,16.10
2017,06,21,11,45,16.00
2017,06,21,11,46,16.00
2017,06,21,11,47,16.00
2017,06,21,11,48,16.00
2017,06,21,11,49,16.00
2017,06,21,11,50,16.00
2017,06,21,11,51,16.00
2017,06,21,11,52,16.00
2017,06,21,11,53,15.90
2017,06,21,11,54,15.90
2017,06,21,11,55,15.80
2017,06,21,11,56,15.90
2017,06,21,11,57,15.90
2017,06,21,11,58,15.90
2017,06,21,11,59,15.90
2017,06,21,12,00,16.00
2017,06,21,12,01,16.00
2017,06,21,12,02,16.00
2017,06,21,12,03,16.00
2017,06,21,12,04,16.00
2017,06,21,12,05,16.00
2017,06,21,12,06,16.10
2017,06,21,12,07,16.20
2017,06,21,12,08,16.30
2017,06,21,12,09,16.40
2017,06,21,12,10,16.50
2017,06,21,12,11,16.50
2017,06,21,12,12,16.60
2017,06,21,12,13,16.60
2017,06,21,12,14,16.80
2017,06,21,12,15,16.90
2017,06,21,12,16,17.00
2017,06,21,12,17,17.00
2017,06,21,12,18,17.00
2017,06,21,12,19,16.90
2017,06,21,12,20,16.80
2017,06,21,12,21,16.80
2017,06,21,12,22,16.70
2017,06,21,12,23,16.60
2017,06,21,12,24,16.60
2017,06,21,12,25,16.60
2017,06,21,12,26,16.60
2017,06,21,12,27,16.60
2017,06,21,12,28,16.70
2017,06,21,12,29,16.70
2017,06,21,12,30,16.80
2017,06,21,12,31,16.80
2017,06,21,12,32,16.90
2017,06,21,12,33,17.00
2017,06,21,12,34,17.10
2017,06,21,12,35,17.20
2017,06,21,12,36,17.20
2017,06,21,12,37,17.20
2017,06,21,12,38,17.20
2017,06,21,12,39,17.10
2017,06,21,12,40,17.20
2017,06,21,12,41,17.20
2017,06,21,12,42,17.30
2017,06,21,12,43,17.40
2017,06,21,12,44,17.40
2017,06,21,12,45,17.50
2017,06,21,12,46,17.60
2017,06,21,12,47,17.60
2017,06,21,12,48,17.50
2017,06,21,12,49,17.40
2017,06,21,12,50,17.40
2017,06,21,12,51,17.30
2017,06,21,12,52,17.30
2017,06,21,12,53,17.30
2017,06,21,12,54,17.30
2017,06,21,12,55,17.30
2017,06,21,12,56,17.40
2017,06,21,12,57,17.50
2017,06,21,12,58,17.60
2017,06,21,12,59,17.70
2017,06,21,13,00,17.80
2017,06,21,13,01,17.70
2017,06,21,13,02,17.70
2017,06,21,13,03,17.60
2017,06,21,13,04,17.60
2017,06,21,13,05,17.60
2017,06,21,13,06,17.60
2017,06,21,13,07,17.70
2017,06,21,13,08,17.60
2017,06,21,13,09,17.60
2017,06,21,13,10,17.50
2017,06,21,13,11,17.40
2017,06,21,13,12,17.40
2017,06,21,13,13,17.40
2017,06,21,13,14,17.30
2017,06,21,13,15,17.30
2017,06,21,13,16,17.30
2017,06,21,13,17,17.40
2017,06,21,13,18,17.60
2017,06,21,13,19,17.70
2017,06,21,13,20,17.70
2017,06,21,13,21,17.80
2017,06,21,13,22,17.80
2017,06,21,13,23,17.70
2017,06,21,13,24,17.70
2017,06,21,13,25,17.60
2017,06,21,13,26,17.50
2017,06,21,13,27,17.40
2017,06,21,13,28,17.30
2017,06,21,13,29,17.30
2017,06,21,13,30,17.30
2017,06,21,13,31,17.30
2017,06,21,13,32,17.40
2017,06,21,13,33,17.50
2017,06,21,13,34,17.70
2017,06,21,13,35,17.70
2017,06,21,13,36,17.80
2017,06,21,13,37,17.80
2017,06,21,13,38,17.80
2017,06,21,13,39,17.90
2017,06,21,13,40,18.00
2017,06,21,13,41,18.10
2017,06,21,13,42,18.20
2017,06,21,13,43,18.20
2017,06,21,13,44,18.20
2017,06,21,13,45,18.20
2017,06,21,13,46,18.10
2017,06,21,13,47,18.00
2017,06,21,13,48,17.90
2017,06,21,13,49,17.90
2017,06,21,13,50,17.90
2017,06,21,13,51,18.00
2017,06,21,13,52,18.10
2017,06,21,13,53,18.10
2017,06,21,13,54,18.10
2017,06,21,13,55,18.10
2017,06,21,13,56,18.10
2017,06,21,13,57,18.10
2017,06,21,13,58,18.10
2017,06,21,13,59,18.20
2017,06,21,14,00,18.30
2017,06,21,14,01,18.30
2017,06,21,14,02,18.40
2017,06,21,14,03,18.40
2017,06,21,14,04,18.40
2017,06,21,14,05,18.40
2017,06,21,14,06,18.30
2017,06,21,14,07,18.30
2017,06,21,14,08,18.30
2017,06,21,14,09,18.40
2017,06,21,14,10,18.40
2017,06,21,14,11,18.50
2017,06,21,14,12,18.50
2017,06,21,14,13,18.50
2017,06,21,14,14,18.60
2017,06,21,14,15,18.60
2017,06,21,14,16,18.60
2017,06,21,14,17,18.70
2017,06,21,14,18,18.60
2017,06,21,14,19,18.50
2017,06,21,14,20,18.50
2017,06,21,14,21,18.40
2017,06,21,14,22,18.40
2017,06,21,14,23,18.40
2017,06,21,14,24,18.50
2017,06,21,14,25,18.50
2017,06,21,14,26,18.60
2017,06,21,14,27,18.60
2017,06,21,14,28,18.60
2017,06,21,14,29,18.60
2017,06,21,14,30,18.50
2017,06,21,14,31,18.50
2017,06,21,14,32,18.40
2017,06,21,14,33,18.40
2017,06,21,14,34,18.50
2017,06,21,14,35,18.60
2017,06,21,14,36,18.70
2017,06,21,14,37,18.80
2017,06,21,14,38,18.80
2017,06,21,14,39,18.90
2017,06,21,14,40,18.90
2017,06,21,14,41,18.90
2017,06,21,14,42,19.00
2017,06,21,14,43,19.10
2017,06,21,14,44,19.00
2017,06,21,14,45,19.00
2017,06,21,14,46,18.90
2017,06,21,14,47,18.90
2017,06,21,14,48,18.90
2017,06,21,14,49,18.90
2017,06,21,14,50,19.00
2017,06,21,14,51,19.10
2017,06,21,14,52,19.10
2017,06,21,14,53,19.10
2017,06,21,14,54,19.00
2017,06,21,14,55,18.90
2017,06,21,14,56,18.80
2017,06,21,14,57,18.80
2017,06,21,14,58,18.80
2017,06,21,14,59,18.70
2017,06,21,15,00,18.60
2017,06,21,15,01,18.50
2017,06,21,15,02,18.40
2017,06,21,15,03,18.40
2017,06,21,15,04,18.40
2017,06,21,15,05,18.40
2017,06,21,15,06,18.40
2017,06,21,15,07,18.50
2017,06,21,15,08,18.50
2017,06,21,15,09,18.60
2017,06,21,15,10,18.60
2017,06,21,15,11,18.50
2017,06,21,15,12,18.50
2017,06,21,15,13,18.60
2017,06,21,15,14,18.60
2017,06,21,15,15,18.70
2017,06,21,15,16,18.70
2017,06,21,15,17,18.70
2017,06,21,15,18,18.70
2017,06,21,15,19,18.70
2017,06,21,15,20,18.70
2017,06,21,15,21,18.70
2017,06,21,15,22,18.70
2017,06,21,15,23,18.70
2017,06,21,15,24,18.80
2017,06,21,15,25,18.80
2017,06,21,15,26,18.80
2017,06,21,15,27,18.80
2017,06,21,15,28,18.80
2017,06,21,15,29,19.00
2017,06,21,15,30,19.10
2017,06,21,15,31,19.10
2017,06,21,15,32,19.20
2017,06,21,15,33,19.10
2017,06,21,15,34,19.10
2017,06,21,15,35,19.10
2017,06,21,15,36,19.00
2017,06,21,15,37,18.90
2017,06,21,15,38,18.90
2017,06,21,15,39,18.80
2017,06,21,15,40,18.90
2017,06,21,15,41,18.90
2017,06,21,15,42,18.90
2017,06,21,15,43,19.00
2017,06,21,15,44,19.10
2017,06,21,15,45,19.10
2017,06,21,15,46,19.10
2017,06,21,15,47,19.20
2017,06,21,15,48,19.30
2017,06,21,15,49,19.30
2017,06,21,15,50,19.30
2017,06,21,15,51,19.30
2017,06,21,15,52,19.40
2017,06,21,15,53,19.40
2017,06,21,15,54,19.40
2017,06,21,15,55,19.40
2017,06,21,15,56,19.40
2017,06,21,15,57,19.40
2017,06,21,15,58,19.50
2017,06,21,15,59,19.60
2017,06,21,16,00,19.60
2017,06,21,16,01,19.70
2017,06,21,16,02,19.70
2017,06,21,16,03,19.70
2017,06,21,16,04,19.70
2017,06,21,16,05,19.70
2017,06,21,16,06,19.60
2017,06,21,16,07,19.60
2017,06,21,16,08,19.60
2017,06,21,16,09,19.60
2017,06,21,16,10,19.60
2017,06,21,16,11,19.70
2017,06,21,16,12,19.70
2017,06,21,16,13,19.70
2017,06,21,16,14,19.70
2017,06,21,16,15,19.80
2017,06,21,16,16,19.90
2017,06,21,16,17,20.00
2017,06,21,16,18,20.10
2017,06,21,16,19,20.20
2017,06,21,16,20,20.20
2017,06,21,16,21,20.20
2017,06,21,16,22,20.10
2017,06,21,16,23,20.00
2017,06,21,16,24,19.90
2017,06,21,16,25,19.90
2017,06,21,16,26,19.80
2017,06,21,16,27,19.80
2017,06,21,16,28,19.70
2017,06,21,16,29,19.70
2017,06,21,16,30,19.70
2017,06,21,16,31,19.70
2017,06,21,16,32,19.70
2017,06,21,16,33,19.70
2017,06,21,16,34,19.60
2017,06,21,16,35,19.50
2017,06,21,16,36,19.30
2017,06,21,16,37,19.30
2017,06,21,16,38,19.20
2017,06,21,16,39,19.20
2017,06,21,16,40,19.20
2017,06,21,16,41,19.30
2017,06,21,16,42,19.40
2017,06,21,16,43,19.40
2017,06,21,16,44,19.40
2017,06,21,16,45,19.30
2017,06,21,16,46,19.30
2017,06,21,16,47,19.20
2017,06,21,16,48,19.20
2017,06,21,16,49,19.20
2017,06,21,16,50,19.20
2017,06,21,16,51,19.10
2017,06,21,16,52,19.20
2017,06,21,16,53,19.30
2017,06,21,16,54,19.30
2017,06,21,16,55,19.40
2017,06,21,16,56,19.40
2017,06,21,16,57,19.40
2017,06,21,16,58,19.40
2017,06,21,16,59,19.40
2017,06,21,17,00,19.40
2017,06,21,17,01,19.40
2017,06,21,17,02,19.40
2017,06,21,17,03,19.40
2017,06,21,17,04,19.30
2017,06,21,17,05,19.30
2017,06,21,17,06,19.20
2017,06,21,17,07,19.10
2017,06,21,17,08,19.10
2017,06,21,17,09,19.00
2017,06,21,17,10,19.00
2017,06,21,17,11,19.00
2017,06,21,17,12,18.90
2017,06,21,17,13,18.90
2017,06,21,17,14,18.90
2017,06,21,17,15,18.90
2017,06,21,17,16,18.90
2017,06,21,17,17,18.80
2017,06,21,17,18,18.80
2017,06,21,17,19,18.80
2017,06,21,17,20,18.80
2017,06,21,17,21,18.80
2017,06,21,17,22,18.80
2017,06,21,17,23,18.90
2017,06,21,17,24,18.90
2017,06,21,17,25,18.90
2017,06,21,17,26,18.90